Regional Weather Roundup
Issued by NWS

Home | Current Version | Previous Version | Text Only | Print | Product List | Glossary On
Versions: 1 2 3 4 5 6 7 8 9 10 11 12 13 14 15 16 17 18 19 20 21 22 23 24 25 26 27 28 29 30 31 32 33 34 35 36 37 38 39 40 41 42 43 44 45 46 47 48 49 50
000
ASUS43 KLSX 040510
RWRMO

WEATHER SUMMARY FOR MISSOURI
NATIONAL WEATHER SERVICE SPRINGFIELD MO
1200 AM CDT FRI SEP 04 2015

NOTE: "FAIR" INDICATES FEW OR NO CLOUDS BELOW 12,000 FEET WITH NO
       SIGNIFICANT WEATHER AND/OR OBSTRUCTIONS TO VISIBILITY.
       CURRENT SKY AND/OR WEATHER CONDITIONS ARE NOT AVAILABLE FOR
       CHILLICOTHE AND FARMINGTON.

MOZ001>031-035>038-043-044-053-054-040600-
...NORTHERN AND WESTERN MISSOURI...

CITY           SKY/WX    TMP DP  RH WIND       PRES   REMARKS
KANSAS CTY INT PTCLDY    74  67  78 S9        29.92S
KANSAS C DTWN  PTCLDY    80  68  66 S7        29.91S
LEE`S SUMMIT   MOCLDY    77  67  71 S7        29.94S
ST JOSEPH      FAIR      74  69  85 S6        29.91R
CHILLICOTHE      N/A     74  70  87 CALM      29.94R
KIRKSVILLE     CLEAR     74  67  78 S5        29.95S

$$
MOZ066>068-077>081-088>096-101>105-040600-
...SOUTHWEST MISSOURI...

CITY           SKY/WX    TMP DP  RH WIND       PRES   REMARKS
SPRINGFIELD    CLEAR     75  69  81 SE6       29.97S
JOPLIN         CLEAR     74  69  85 SE6       29.95S

$$
MOZ032>034-039>042-045>050-055>058-069>072-040600-
...CENTRAL MISSOURI...

CITY           SKY/WX    TMP DP  RH WIND       PRES   REMARKS
COLUMBIA       CLEAR     74  69  85 S6        29.96S
JEFFERSON CITY CLEAR     74  70  87 SE5       29.94S
ROLLA          CLEAR     73  67  81 S7        29.97S
SEDALIA        CLEAR     75  68  78 S7        29.96S
WHITEMAN AFB   CLEAR     75  68  79 S3        29.93S
OSAGE BEACH    CLEAR     72  66  83 SE3       29.97S

$$
MOZ051-052-059>065-040600-
...EAST CENTRAL MISSOURI...

CITY           SKY/WX    TMP DP  RH WIND       PRES   REMARKS
ST LOUIS INTL  PTCLDY    81  68  64 CALM      29.96S
SPIRIT OF STL  CLEAR     73  71  93 CALM      29.94S
ST CHARLES     CLEAR     74  72  93 CALM      29.94S

$$
MOZ072>076-082>087-097>100-106>115-040600-
...SOUTH CENTRAL AND SOUTHEAST MISSOURI...

CITY           SKY/WX    TMP DP  RH WIND       PRES   REMARKS
CAPE GIRARDEAU CLEAR     71  70  96 SE3       29.96S FOG
FARMINGTON     CLEAR     72  70  94 CALM      30.01S
POPLAR BLUFF   CLEAR     71  70  96 CALM      29.95S FOG
WEST PLAINS    CLEAR     71  67  87 CALM      30.01S

$$



USA.gov is the U.S. government's official web portal to all federal, state and local government web resources and services.